Regional Weather Roundup
Issued by NWS

Home | Current Version | Previous Version | Text Only | Print | Product List | Glossary On
Versions: 1 2 3 4 5 6 7 8 9 10 11 12 13 14 15 16 17 18 19 20 21 22 23 24 25 26 27 28 29 30 31 32 33 34 35 36 37 38 39 40 41 42 43 44 45 46 47 48 49 50
000
ASUS43 KOAX 141702
RWRNE

WEATHER ROUNDUP FOR NEBRASKA
NATIONAL WEATHER SERVICE OMAHA NE
1100 AM CST SUN FEB 14 2016

NOTES: SATELLITE DATA IS BEING USED TO AUGMENT CLOUD COVER ABOVE
       12000 FEET.
       "FAIR" INDICATES FEW OR NO CLOUDS BELOW 12,000 FEET WITH NO
       SIGNIFICANT WEATHER AND/OR OBSTRUCTIONS TO VISIBILITY.

  * THESE STATIONS DO NOT REPORT WEATHER SUCH AS RAIN...SNOW OR FOG.

NEZ001>004-019>022-054>056-141800-
NEBRASKA PANHANDLE

CITY           SKY/WX    TMP DP  RH WIND       PRES   REMARKS
SCOTTSBLUFF    CLOUDY    37  26  64 W6        29.87F WCI  32
ALLIANCE       PTSUNNY   37  25  61 CALM      29.86F
CHADRON        CLOUDY    36  26  67 SW12      29.85F WCI  28
SIDNEY         CLOUDY    44  27  51 W13       29.90F
$$

NEZ057>060-069>072-079>082-141800-
SOUTHWEST NEBRASKA

CITY           SKY/WX    TMP DP  RH WIND       PRES   REMARKS
NORTH PLATTE   SUNNY     41  27  57 W10       29.87F
IMPERIAL       CLOUDY    41  29  62 W9        29.92S
MCCOOK         SUNNY     40  28  62 W9        29.91S WCI  34
$$

NEZ005>010-023>029-035>040-094-141800-
NORTH CENTRAL NEBRASKA

CITY           SKY/WX    TMP DP  RH WIND       PRES   REMARKS
VALENTINE      SUNNY     41  29  62 W13       29.82S
AINSWORTH      MOSUNNY   38  31  73 W6        29.82F WCI  34
BROKEN BOW     SUNNY     45  29  53 NW10      29.84F
ORD            CLOUDY    40  30  67 NW13      29.84S WCI  32
$$

NEZ041-046>049-061>064-073>077-083>087-141800-
SOUTH CENTRAL NEBRASKA

CITY           SKY/WX    TMP DP  RH WIND       PRES   REMARKS
GRAND ISLAND   MOSUNNY   40  30  67 NW12      29.86S WCI  33
HASTINGS       SUNNY     39  28  64 W7        29.86S WCI  34
HEBRON         SUNNY     44  30  58 NW10      29.88F
KEARNEY *      SUNNY     43  28  56 W10       29.88R
YORK           SUNNY     39  32  75 NW13      29.83F WCI  32
$$

NEZ011>018-030>034-042>045-141800-
NORTHEAST NEBRASKA

CITY           SKY/WX    TMP DP  RH WIND       PRES   REMARKS
NORFOLK        FLURRIES  33  28  81 NW9       29.82S WCI  25
BLAIR          CLOUDY    28  20  72 S9        29.83F WCI  19
COLUMBUS *     CLOUDY    37  27  65 NE9       29.85R WCI  31
FREMONT        CLOUDY    31  24  77 W5        29.84F WCI  26
TEKAMAH        CLOUDY    24  17  74 SE8       29.86F WCI  15
$$

NEZ050>053-065>068-078-088>093-141800-
SOUTHEAST NEBRASKA

CITY           SKY/WX    TMP DP  RH WIND       PRES   REMARKS
LINCOLN        CLOUDY    31  24  75 S3        29.87F
OMAHA EPPLEY   CLOUDY    28  16  60 SW6       29.88S WCI  22
BEATRICE       CLOUDY    38  26  61 W9        29.87F WCI  32
FALLS CITY     CLOUDY    36  16  44 SW12      29.90F WCI  28
NEBRASKA CITY  CLOUDY    34  18  52 W9        29.86F WCI  27
$$

NEZ044-045-051>053-067-141800-
OMAHA AREA

CITY           SKY/WX    TMP DP  RH WIND       PRES   REMARKS
OMAHA EPPLEY   CLOUDY    28  16  60 SW6       29.88S WCI  22
BLAIR          CLOUDY    28  20  72 S9        29.83F WCI  19
FREMONT        CLOUDY    31  24  77 W5        29.84F WCI  26
OFFUTT AFB     CLOUDY    31  17  57 SW6       29.85F WCI  25
WAHOO          CLOUDY    32  26  78 W5        29.85S WCI  27
$$



USA.gov is the U.S. government's official web portal to all federal, state and local government web resources and services.